| time (UTC) | temp F | wind direction | speed MPH | gust MPH | rain 1hr in | rain 24hr in | rain mn in | humidity % | barometer mb |
| 20260502170103 | 55 | 280 | 6.0 | 13.0 | 0.00 | 0.00 | 0.00 | 44 | 1019.6 |
| 20260502164103 | 55 | 210 | 4.0 | 9.0 | 0.00 | 0.00 | 0.00 | 45 | 1019.6 |
| 20260502163603 | 55 | 253 | 5.0 | 10.0 | 0.00 | 0.00 | 0.00 | 45 | 1019.6 |
| 20260502163103 | 55 | 268 | 6.0 | 10.0 | 0.00 | 0.00 | 0.00 | 44 | 1019.6 |
| 20260502162603 | 55 | 288 | 8.0 | 12.0 | 0.00 | 0.00 | 0.00 | 44 | 1019.6 |
| 20260502162103 | 55 | 277 | 6.0 | 12.0 | 0.00 | 0.00 | 0.00 | 45 | 1019.6 |
| 20260502161103 | 55 | 252 | 5.0 | 12.0 | 0.00 | 0.00 | 0.00 | 44 | 1019.6 |
| 20260502160602 | 54 | 277 | 2.0 | 9.0 | 0.00 | 0.00 | 0.00 | 47 | 1019.6 |
| 20260502152103 | 52 | 218 | 5.0 | 10.0 | 0.00 | 0.00 | 0.00 | 49 | 1020.0 |
| 20260502151603 | 51 | 214 | 2.0 | 13.0 | 0.00 | 0.00 | 0.00 | 52 | 1020.0 |
| 20260502151103 | 51 | 249 | 6.0 | 10.0 | 0.00 | 0.00 | 0.00 | 50 | 1020.0 |
| 20260502150603 | 51 | 246 | 5.0 | 10.0 | 0.00 | 0.00 | 0.00 | 50 | 1020.0 |
| 20260502150103 | 51 | 242 | 3.0 | 12.0 | 0.00 | 0.00 | 0.00 | 53 | 1020.3 |
| 20260502130603 | 43 | 266 | 2.0 | 3.0 | 0.00 | 0.00 | 0.00 | 62 | 1020.7 |
| 20260502122603 | 40 | 227 | 2.0 | 5.0 | 0.00 | 0.00 | 0.00 | 64 | 1020.7 |
| 20260502122103 | 40 | 257 | 0.0 | 3.0 | 0.00 | 0.00 | 0.00 | 64 | 1020.7 |
| 20260502121603 | 39 | 257 | 0.0 | 2.0 | 0.00 | 0.00 | 0.00 | 64 | 1020.7 |
| 20260502121103 | 39 | 256 | 1.0 | 3.0 | 0.00 | 0.00 | 0.00 | 65 | 1020.7 |
| 20260502120603 | 39 | 257 | 0.0 | 1.0 | 0.00 | 0.00 | 0.00 | 65 | 1020.7 |
| 20260502115603 | 38 | 271 | 1.0 | 3.0 | 0.00 | 0.00 | 0.00 | 64 | 1020.3 |
| 20260502114103 | 38 | 234 | 1.0 | 3.0 | 0.00 | 0.00 | 0.00 | 64 | 1020.3 |
| 20260502113604 | 38 | 259 | 1.0 | 3.0 | 0.00 | 0.00 | 0.00 | 64 | 1020.3 |
| 20260502113103 | 38 | 269 | 1.0 | 3.0 | 0.00 | 0.00 | 0.00 | 64 | 1020.3 |
| 20260502112603 | 37 | 239 | 1.0 | 3.0 | 0.00 | 0.00 | 0.00 | 64 | 1020.3 |
| 20260502112103 | 37 | 260 | 1.0 | 3.0 | 0.00 | 0.00 | 0.00 | 64 | 1020.3 |
| 20260502111603 | 37 | 243 | 1.0 | 5.0 | 0.00 | 0.00 | 0.00 | 64 | 1020.3 |
| 20260502110103 | 36 | 9 | 0.0 | 1.0 | 0.00 | 0.00 | 0.00 | 66 | 1020.3 |
| 20260502105603 | 36 | 9 | 0.0 | 1.0 | 0.00 | 0.00 | 0.00 | 66 | 1020.3 |
| 20260502105103 | 36 | 9 | 0.0 | 0.0 | 0.00 | 0.00 | 0.00 | 66 | 1020.3 |
| 20260502104603 | 36 | 9 | 0.0 | 1.0 | 0.00 | 0.00 | 0.00 | 67 | 1020.3 |
| 20260502104103 | 36 | 9 | 0.0 | 0.0 | 0.00 | 0.00 | 0.00 | 67 | 1020.3 |
| 20260502103603 | 36 | 9 | 0.0 | 0.0 | 0.00 | 0.00 | 0.00 | 68 | 1020.3 |
| 20260502103103 | 36 | 9 | 0.0 | 0.0 | 0.00 | 0.00 | 0.00 | 68 | 1020.3 |
| 20260502102603 | 36 | 9 | 0.0 | 0.0 | 0.00 | 0.00 | 0.00 | 68 | 1020.3 |
| 20260502102103 | 36 | 9 | 0.0 | 0.0 | 0.00 | 0.00 | 0.00 | 68 | 1020.3 |
| 20260502101603 | 35 | 9 | 0.0 | 0.0 | 0.00 | 0.00 | 0.00 | 67 | 1020.3 |
| 20260502101103 | 35 | 9 | 0.0 | 0.0 | 0.00 | 0.00 | 0.00 | 67 | 1020.3 |
| 20260502100603 | 35 | 9 | 0.0 | 0.0 | 0.00 | 0.00 | 0.00 | 68 | 1020.3 |
| 20260502091103 | 36 | 9 | 0.0 | 0.0 | 0.00 | 0.00 | 0.00 | 69 | 1020.3 |
| 20260502090604 | 35 | 9 | 0.0 | 0.0 | 0.00 | 0.00 | 0.00 | 70 | 1020.3 |
| 20260502071103 | 38 | 9 | 0.0 | 0.0 | 0.00 | 0.00 | 0.00 | 69 | 1020.3 |
| 20260502070603 | 38 | 9 | 0.0 | 0.0 | 0.00 | 0.00 | 0.00 | 69 | 1020.3 |
| 20260502065603 | 39 | 9 | 0.0 | 0.0 | 0.00 | 0.00 | 0.00 | 70 | 1020.7 |
| 20260502065103 | 39 | 9 | 0.0 | 0.0 | 0.00 | 0.00 | 0.00 | 69 | 1020.7 |
| 20260502064603 | 39 | 9 | 0.0 | 0.0 | 0.00 | 0.00 | 0.00 | 70 | 1020.7 |
| 20260502063103 | 40 | 9 | 0.0 | 0.0 | 0.00 | 0.00 | 0.00 | 71 | 1020.7 |
| 20260502062603 | 40 | 9 | 0.0 | 0.0 | 0.00 | 0.00 | 0.00 | 71 | 1020.7 |
| 20260502062103 | 40 | 9 | 0.0 | 0.0 | 0.00 | 0.00 | 0.00 | 69 | 1020.7 |
| 20260502061603 | 40 | 9 | 0.0 | 0.0 | 0.00 | 0.00 | 0.00 | 66 | 1020.7 |
| 20260502061103 | 40 | 9 | 0.0 | 0.0 | 0.00 | 0.00 | 0.00 | 65 | 1020.7 |
| 20260502060603 | 40 | 9 | 0.0 | 0.0 | 0.00 | 0.00 | 0.00 | 64 | 1020.7 |
| 20260502055103 | 40 | 9 | 0.0 | 0.0 | 0.00 | 0.00 | 0.00 | 64 | 1020.3 |
| 20260502054603 | 40 | 9 | 0.0 | 0.0 | 0.00 | 0.00 | 0.00 | 64 | 1020.3 |
| 20260502053603 | 40 | 9 | 0.0 | 0.0 | 0.00 | 0.00 | 0.00 | 69 | 1020.3 |
| 20260502053103 | 40 | 9 | 0.0 | 0.0 | 0.00 | 0.00 | 0.00 | 68 | 1020.3 |
| 20260502052103 | 40 | 9 | 0.0 | 0.0 | 0.00 | 0.00 | 0.00 | 67 | 1020.3 |
| 20260502051603 | 41 | 9 | 0.0 | 0.0 | 0.00 | 0.00 | 0.00 | 66 | 1020.3 |
| 20260502051103 | 41 | 9 | 0.0 | 0.0 | 0.00 | 0.00 | 0.00 | 67 | 1020.3 |
| 20260502045603 | 41 | 9 | 0.0 | 0.0 | 0.00 | 0.00 | 0.00 | 66 | 1020.3 |
| 20260502044603 | 42 | 9 | 0.0 | 0.0 | 0.00 | 0.00 | 0.00 | 65 | 1020.3 |
| 20260502043604 | 42 | 9 | 0.0 | 0.0 | 0.00 | 0.00 | 0.00 | 64 | 1020.3 |
| 20260502043103 | 42 | 9 | 0.0 | 0.0 | 0.00 | 0.00 | 0.00 | 63 | 1020.3 |
| 20260502042603 | 42 | 9 | 0.0 | 0.0 | 0.00 | 0.00 | 0.00 | 63 | 1020.3 |
| 20260502042104 | 42 | 9 | 0.0 | 0.0 | 0.00 | 0.00 | 0.00 | 63 | 1020.3 |
| 20260502041603 | 43 | 9 | 0.0 | 0.0 | 0.00 | 0.00 | 0.00 | 62 | 1020.3 |
| 20260502041103 | 43 | 9 | 0.0 | 0.0 | 0.00 | 0.00 | 0.00 | 62 | 1020.3 |
| 20260502040603 | 43 | 9 | 0.0 | 0.0 | 0.00 | 0.00 | 0.00 | 61 | 1020.3 |
| 20260502035603 | 44 | 9 | 0.0 | 0.0 | 0.00 | 0.00 | 0.00 | 60 | 1020.0 |
| 20260502035103 | 45 | 9 | 0.0 | 0.0 | 0.00 | 0.00 | 0.00 | 59 | 1020.0 |
| 20260502034603 | 45 | 9 | 0.0 | 0.0 | 0.00 | 0.00 | 0.00 | 59 | 1020.0 |
| 20260502034103 | 45 | 9 | 0.0 | 0.0 | 0.00 | 0.00 | 0.00 | 57 | 1020.0 |
| 20260502033604 | 46 | 9 | 0.0 | 0.0 | 0.00 | 0.00 | 0.00 | 57 | 1020.0 |
| 20260502033103 | 46 | 9 | 0.0 | 2.0 | 0.00 | 0.00 | 0.00 | 57 | 1020.0 |
| 20260502032603 | 46 | 9 | 0.0 | 1.0 | 0.00 | 0.00 | 0.00 | 57 | 1020.0 |
| 20260502032103 | 46 | 9 | 0.0 | 0.0 | 0.00 | 0.00 | 0.00 | 56 | 1020.0 |
| 20260502031603 | 46 | 9 | 0.0 | 0.0 | 0.00 | 0.00 | 0.00 | 55 | 1020.0 |
| 20260502030603 | 47 | 9 | 1.0 | 3.0 | 0.00 | 0.00 | 0.00 | 54 | 1020.0 |
| 20260502030103 | 47 | 5 | 3.0 | 5.0 | 0.00 | 0.00 | 0.00 | 54 | 1019.6 |
| 20260502025603 | 47 | 5 | 1.0 | 3.0 | 0.00 | 0.00 | 0.00 | 54 | 1019.6 |
| 20260502025103 | 47 | 5 | 2.0 | 5.0 | 0.00 | 0.00 | 0.00 | 54 | 1019.6 |
| 20260502024103 | 47 | 5 | 2.0 | 3.0 | 0.00 | 0.00 | 0.00 | 54 | 1019.6 |
| 20260502023103 | 47 | 12 | 2.0 | 5.0 | 0.00 | 0.00 | 0.00 | 53 | 1019.6 |
| 20260502022103 | 47 | 5 | 3.0 | 8.0 | 0.00 | 0.00 | 0.00 | 52 | 1019.6 |
| 20260502021603 | 47 | 8 | 2.0 | 5.0 | 0.00 | 0.00 | 0.00 | 53 | 1019.6 |
| 20260502021102 | 47 | 9 | 2.0 | 5.0 | 0.00 | 0.00 | 0.00 | 52 | 1019.6 |
| 20260502020603 | 47 | 355 | 3.0 | 5.0 | 0.00 | 0.00 | 0.00 | 52 | 1019.6 |
| 20260502020103 | 47 | 6 | 2.0 | 5.0 | 0.00 | 0.00 | 0.00 | 52 | 1019.0 |
| 20260502015602 | 48 | 342 | 2.0 | 3.0 | 0.00 | 0.00 | 0.00 | 51 | 1019.0 |
| 20260502014603 | 48 | 9 | 3.0 | 5.0 | 0.00 | 0.00 | 0.00 | 51 | 1019.0 |
| 20260502014103 | 48 | 5 | 3.0 | 5.0 | 0.00 | 0.00 | 0.00 | 50 | 1019.0 |
| 20260502013103 | 48 | 349 | 4.0 | 10.0 | 0.00 | 0.00 | 0.00 | 51 | 1019.0 |
| 20260502012603 | 48 | 3 | 3.0 | 10.0 | 0.00 | 0.00 | 0.00 | 50 | 1019.0 |
| 20260502011103 | 48 | 0 | 3.0 | 8.0 | 0.00 | 0.00 | 0.00 | 50 | 1019.0 |
| 20260502005603 | 49 | 341 | 6.0 | 8.0 | 0.00 | 0.00 | 0.00 | 49 | 1018.6 |
| 20260502005103 | 49 | 338 | 9.0 | 13.0 | 0.00 | 0.00 | 0.00 | 49 | 1018.6 |
| 20260502004603 | 49 | 330 | 5.0 | 10.0 | 0.00 | 0.00 | 0.00 | 48 | 1018.6 |
| 20260502004103 | 49 | 6 | 5.0 | 9.0 | 0.00 | 0.00 | 0.00 | 48 | 1018.6 |
| 20260502003603 | 49 | 349 | 8.0 | 12.0 | 0.00 | 0.00 | 0.00 | 48 | 1018.6 |
| 20260502003103 | 49 | 347 | 6.0 | 10.0 | 0.00 | 0.00 | 0.00 | 48 | 1018.6 |
| 20260502002603 | 49 | 7 | 5.0 | 10.0 | 0.00 | 0.00 | 0.00 | 48 | 1018.6 |
| 20260502002103 | 49 | 6 | 5.0 | 9.0 | 0.00 | 0.00 | 0.00 | 49 | 1018.6 |
| 20260502001103 | 49 | 30 | 6.0 | 12.0 | 0.00 | 0.00 | 0.00 | 49 | 1018.6 |
| 20260502000603 | 49 | 12 | 6.0 | 9.0 | 0.00 | 0.00 | 0.00 | 49 | 1018.6 |
| 20260501235603 | 50 | 7 | 6.0 | 10.0 | 0.00 | 0.00 | 0.00 | 49 | 1018.6 |
| 20260501235103 | 50 | 27 | 7.0 | 12.0 | 0.00 | 0.00 | 0.00 | 48 | 1018.6 |
| 20260501233603 | 51 | 359 | 5.0 | 10.0 | 0.00 | 0.00 | 0.00 | 45 | 1018.6 |
| 20260501233103 | 51 | 0 | 5.0 | 10.0 | 0.00 | 0.00 | 0.00 | 46 | 1018.6 |
| 20260501232603 | 50 | 16 | 5.0 | 10.0 | 0.00 | 0.00 | 0.00 | 46 | 1018.6 |
| 20260501231603 | 50 | 344 | 3.0 | 8.0 | 0.00 | 0.00 | 0.00 | 47 | 1018.6 |
| 20260501231103 | 50 | 3 | 7.0 | 12.0 | 0.00 | 0.00 | 0.00 | 46 | 1018.6 |
| 20260501225603 | 50 | 26 | 6.0 | 9.0 | 0.00 | 0.00 | 0.00 | 46 | 1018.6 |
| 20260501225102 | 50 | 348 | 5.0 | 8.0 | 0.00 | 0.00 | 0.00 | 45 | 1018.6 |
| 20260501224603 | 50 | 10 | 7.0 | 12.0 | 0.00 | 0.00 | 0.00 | 48 | 1018.6 |
| 20260501224103 | 49 | 328 | 6.0 | 9.0 | 0.00 | 0.00 | 0.00 | 49 | 1018.6 |
| 20260501223603 | 49 | 334 | 7.0 | 12.0 | 0.00 | 0.00 | 0.00 | 49 | 1018.6 |
| 20260501223103 | 49 | 14 | 10.0 | 13.0 | 0.00 | 0.00 | 0.00 | 50 | 1018.6 |
| 20260501222103 | 50 | 25 | 9.0 | 13.0 | 0.00 | 0.00 | 0.00 | 49 | 1018.6 |
| 20260501221103 | 49 | 7 | 8.0 | 13.0 | 0.00 | 0.00 | 0.00 | 50 | 1018.6 |
| 20260501220603 | 50 | 38 | 5.0 | 12.0 | 0.00 | 0.00 | 0.00 | 48 | 1018.6 |
| 20260501215603 | 50 | 30 | 7.0 | 12.0 | 0.00 | 0.00 | 0.00 | 47 | 1018.6 |
| 20260501215103 | 50 | 341 | 7.0 | 12.0 | 0.00 | 0.00 | 0.00 | 47 | 1018.6 |
| 20260501214604 | 50 | 334 | 7.0 | 12.0 | 0.00 | 0.00 | 0.00 | 48 | 1018.6 |
| 20260501214103 | 49 | 15 | 7.0 | 13.0 | 0.00 | 0.00 | 0.00 | 49 | 1018.6 |
| 20260501213104 | 49 | 339 | 9.0 | 15.0 | 0.00 | 0.00 | 0.00 | 50 | 1018.6 |
| 20260501212603 | 49 | 22 | 6.0 | 12.0 | 0.00 | 0.00 | 0.00 | 50 | 1018.6 |
| 20260501212103 | 49 | 1 | 7.0 | 12.0 | 0.00 | 0.00 | 0.00 | 48 | 1018.6 |
| 20260501211603 | 49 | 0 | 5.0 | 12.0 | 0.00 | 0.00 | 0.00 | 50 | 1018.6 |
| 20260501210603 | 49 | 0 | 6.0 | 13.0 | 0.00 | 0.00 | 0.00 | 51 | 1018.6 |
| 20260501210103 | 49 | 338 | 8.0 | 15.0 | 0.00 | 0.00 | 0.00 | 50 | 1019.0 |
| 20260501205604 | 50 | 13 | 8.0 | 13.0 | 0.00 | 0.00 | 0.00 | 50 | 1019.0 |
| 20260501205103 | 50 | 303 | 3.0 | 10.0 | 0.00 | 0.00 | 0.00 | 49 | 1019.0 |
| 20260501204603 | 50 | 2 | 9.0 | 14.0 | 0.00 | 0.00 | 0.00 | 48 | 1019.0 |
| 20260501204103 | 50 | 9 | 8.0 | 13.0 | 0.00 | 0.00 | 0.00 | 49 | 1019.0 |
| 20260501203603 | 49 | 344 | 2.0 | 12.0 | 0.00 | 0.00 | 0.00 | 48 | 1019.0 |
| 20260501203103 | 49 | 337 | 7.0 | 14.0 | 0.00 | 0.00 | 0.00 | 47 | 1019.0 |
| 20260501202603 | 50 | 341 | 8.0 | 14.0 | 0.00 | 0.00 | 0.00 | 48 | 1019.0 |
| 20260501202103 | 49 | 42 | 3.0 | 15.0 | 0.00 | 0.00 | 0.00 | 52 | 1019.0 |
| 20260501201603 | 49 | 2 | 7.0 | 15.0 | 0.00 | 0.00 | 0.00 | 50 | 1019.0 |
| 20260501201103 | 48 | 5 | 5.0 | 12.0 | 0.00 | 0.00 | 0.00 | 50 | 1019.0 |
| 20260501195603 | 48 | 15 | 8.0 | 12.0 | 0.00 | 0.00 | 0.00 | 52 | 1019.0 |
| 20260501195103 | 49 | 357 | 8.0 | 13.0 | 0.00 | 0.00 | 0.00 | 50 | 1019.0 |
| 20260501194103 | 48 | 350 | 5.0 | 10.0 | 0.00 | 0.00 | 0.00 | 51 | 1019.0 |
| 20260501193603 | 48 | 337 | 7.0 | 15.0 | 0.00 | 0.00 | 0.00 | 52 | 1019.0 |
| 20260501193103 | 48 | 335 | 8.0 | 14.0 | 0.00 | 0.00 | 0.00 | 51 | 1019.0 |
| 20260501191103 | 47 | 19 | 8.0 | 14.0 | 0.00 | 0.00 | 0.00 | 52 | 1019.0 |
| 20260501190603 | 47 | 352 | 7.0 | 12.0 | 0.00 | 0.00 | 0.00 | 52 | 1019.0 |
| 20260501185103 | 47 | 336 | 6.0 | 13.0 | 0.00 | 0.00 | 0.00 | 54 | 1019.0 |
| 20260501184603 | 47 | 321 | 9.0 | 13.0 | 0.00 | 0.00 | 0.00 | 52 | 1019.0 |
| 20260501184103 | 47 | 8 | 6.0 | 10.0 | 0.00 | 0.00 | 0.00 | 53 | 1019.0 |
| 20260501183603 | 47 | 334 | 4.0 | 8.0 | 0.00 | 0.00 | 0.00 | 52 | 1019.0 |
| 20260501183103 | 47 | 3 | 6.0 | 12.0 | 0.00 | 0.00 | 0.00 | 53 | 1019.0 |
| 20260501182603 | 46 | 25 | 9.0 | 14.0 | 0.00 | 0.00 | 0.00 | 54 | 1019.0 |
| 20260501182103 | 47 | 335 | 6.0 | 12.0 | 0.00 | 0.00 | 0.00 | 55 | 1019.0 |
| 20260501181603 | 47 | 7 | 10.0 | 15.0 | 0.00 | 0.00 | 0.00 | 54 | 1019.0 |
| 20260501181103 | 47 | 333 | 10.0 | 15.0 | 0.00 | 0.00 | 0.00 | 55 | 1019.0 |
| 20260501180603 | 47 | 4 | 5.0 | 14.0 | 0.00 | 0.00 | 0.00 | 54 | 1019.0 |
| 20260501175603 | 47 | 30 | 9.0 | 15.0 | 0.00 | 0.00 | 0.00 | 56 | 1019.0 |
| 20260501175103 | 47 | 21 | 11.0 | 15.0 | 0.00 | 0.00 | 0.00 | 55 | 1019.0 |
| 20260501174603 | 47 | 335 | 6.0 | 15.0 | 0.00 | 0.00 | 0.00 | 56 | 1019.0 |
| 20260501174103 | 46 | 26 | 9.0 | 14.0 | 0.00 | 0.00 | 0.00 | 56 | 1019.0 |
| 20260501173603 | 46 | 24 | 6.0 | 12.0 | 0.00 | 0.00 | 0.00 | 55 | 1019.0 |
| 20260501173102 | 46 | 17 | 9.0 | 13.0 | 0.00 | 0.00 | 0.00 | 56 | 1019.0 |
| 20260501172603 | 46 | 351 | 10.0 | 14.0 | 0.00 | 0.00 | 0.00 | 56 | 1019.0 |
| 20260501172103 | 46 | 1 | 10.0 | 16.0 | 0.00 | 0.00 | 0.00 | 56 | 1019.0 |